| time (UTC) | temp C | wind direction | speed KPH | gust KPH | rain 1hr cm | rain 24hr cm | rain mn cm | humidity % | barometer mb |
| 20260506202246 | 14 | 168 | 0.0 | 3.2 | 0.05 | 0.00 | 0.53 | 99 | 1007.0 |
| 20260506201752 | 14 | 0 | 0.0 | 0.0 | 0.18 | 0.00 | 0.51 | 99 | 1007.0 |
| 20260506201247 | 14 | 182 | 4.8 | 6.4 | 0.33 | 0.00 | 0.51 | 99 | 1007.0 |
| 20260506200748 | 14 | 0 | 0.0 | 0.0 | 0.08 | 0.00 | 0.46 | 99 | 1007.0 |
| 20260506200246 | 14 | 189 | 1.6 | 3.2 | 0.30 | 0.00 | 0.43 | 98 | 1007.0 |
| 20260506195746 | 14 | 154 | 1.6 | 3.2 | 0.33 | 0.00 | 0.41 | 98 | 1007.0 |
| 20260506195248 | 14 | 221 | 3.2 | 4.8 | 0.43 | 0.00 | 0.38 | 98 | 1007.0 |
| 20260506194751 | 15 | 331 | 1.6 | 3.2 | 0.00 | 0.00 | 0.36 | 98 | 1007.0 |
| 20260506194247 | 15 | 115 | 1.6 | 4.8 | 0.30 | 0.00 | 0.36 | 97 | 1007.0 |
| 20260506193750 | 15 | 162 | 6.4 | 11.3 | 0.13 | 0.00 | 0.33 | 97 | 1007.0 |
| 20260506193249 | 15 | 328 | 0.0 | 0.0 | 0.00 | 0.00 | 0.30 | 97 | 1007.0 |
| 20260506192750 | 15 | 172 | 1.6 | 1.6 | 0.05 | 0.00 | 0.30 | 96 | 1007.0 |
| 20260506192247 | 15 | 103 | 1.6 | 3.2 | 0.03 | 0.00 | 0.33 | 97 | 1007.0 |
| 20260506191750 | 15 | 121 | 3.2 | 4.8 | 0.00 | 0.00 | 0.33 | 96 | 1007.0 |
| 20260506191247 | 15 | 195 | 3.2 | 4.8 | 0.00 | 0.00 | 0.33 | 96 | 1007.0 |
| 20260506190746 | 15 | 139 | 3.2 | 3.2 | 0.00 | 0.00 | 0.33 | 96 | 1007.0 |
| 20260506190254 | 15 | 168 | 0.0 | 3.2 | 0.00 | 0.00 | 0.30 | 96 | 1007.0 |
| 20260506185747 | 15 | 0 | 0.0 | 0.0 | 0.00 | 0.00 | 0.30 | 96 | 1007.0 |
| 20260506185249 | 15 | 216 | 1.6 | 4.8 | 0.13 | 0.00 | 0.30 | 96 | 1007.0 |
| 20260506184747 | 15 | 137 | 3.2 | 6.4 | 0.38 | 0.00 | 0.30 | 95 | 1007.0 |
| 20260506184247 | 15 | 228 | 0.0 | 3.2 | 0.18 | 0.00 | 0.25 | 95 | 1007.0 |
| 20260506183747 | 15 | 174 | 3.2 | 6.4 | 0.08 | 0.00 | 0.23 | 94 | 1007.0 |
| 20260506182800 | 15 | 210 | 3.2 | 4.8 | 0.03 | 0.00 | 0.23 | 96 | 1007.0 |
| 20260506182246 | 15 | 233 | 0.0 | 3.2 | 0.05 | 0.00 | 0.28 | 97 | 1007.0 |
| 20260506181746 | 15 | 219 | 3.2 | 4.8 | 0.13 | 0.00 | 0.28 | 95 | 1007.0 |
| 20260506181247 | 15 | 29 | 0.0 | 3.2 | 0.18 | 0.00 | 0.25 | 95 | 1007.0 |
| 20260506180747 | 15 | 231 | 3.2 | 4.8 | 0.18 | 0.00 | 0.23 | 96 | 1008.0 |
| 20260506180247 | 15 | 153 | 4.8 | 8.0 | 0.13 | 0.00 | 0.20 | 95 | 1008.0 |
| 20260506175746 | 15 | 239 | 1.6 | 6.4 | 0.10 | 0.00 | 0.20 | 95 | 1008.0 |
| 20260506175247 | 15 | 187 | 1.6 | 3.2 | 0.33 | 0.00 | 0.20 | 94 | 1008.0 |
| 20260506174746 | 16 | 195 | 3.2 | 6.4 | 0.28 | 0.00 | 0.15 | 93 | 1008.0 |
| 20260506174247 | 16 | 161 | 4.8 | 6.4 | 0.25 | 0.00 | 0.13 | 91 | 1008.0 |
| 20260506173747 | 16 | 175 | 1.6 | 4.8 | 0.10 | 0.00 | 0.10 | 91 | 1008.0 |
| 20260506173247 | 16 | 164 | 0.0 | 3.2 | 0.18 | 0.00 | 0.10 | 91 | 1008.0 |
| 20260506172746 | 16 | 153 | 3.2 | 6.4 | 0.15 | 0.00 | 0.08 | 89 | 1009.0 |
| 20260506172248 | 16 | 168 | 1.6 | 3.2 | 0.10 | 0.00 | 0.08 | 89 | 1009.0 |
| 20260506171747 | 17 | 159 | 3.2 | 8.0 | 0.13 | 0.00 | 0.05 | 86 | 1009.0 |
| 20260506171250 | 17 | 220 | 0.0 | 1.6 | 0.08 | 0.00 | 0.03 | 84 | 1009.0 |
| 20260506170747 | 18 | 242 | 4.8 | 9.7 | 0.08 | 0.00 | 0.03 | 81 | 1009.0 |
| 20260506170247 | 18 | 232 | 1.6 | 6.4 | 0.20 | 0.00 | 0.00 | 77 | 1008.0 |
| 20260506165747 | 19 | 204 | 4.8 | 9.7 | 0.08 | 0.00 | 0.00 | 74 | 1008.0 |
| 20260506165247 | 19 | 164 | 4.8 | 11.3 | 0.00 | 0.00 | 0.00 | 72 | 1008.0 |
| 20260506164748 | 19 | 197 | 0.0 | 3.2 | 0.00 | 0.00 | 0.00 | 72 | 1008.0 |
| 20260506164247 | 19 | 284 | 3.2 | 6.4 | 0.00 | 0.00 | 0.00 | 72 | 1008.0 |
| 20260506163747 | 18 | 183 | 6.4 | 11.3 | 0.00 | 0.00 | 0.00 | 72 | 1008.0 |
| 20260506163247 | 19 | 184 | 3.2 | 6.4 | 0.00 | 0.00 | 0.00 | 72 | 1008.0 |
| 20260506162746 | 19 | 205 | 3.2 | 4.8 | 0.00 | 0.00 | 0.00 | 72 | 1008.0 |
| 20260506162246 | 19 | 176 | 4.8 | 8.0 | 0.00 | 0.00 | 0.00 | 72 | 1009.0 |
| 20260506161747 | 18 | 162 | 6.4 | 12.9 | 0.00 | 0.00 | 0.00 | 72 | 1008.0 |
| 20260506161247 | 18 | 256 | 4.8 | 14.5 | 0.00 | 0.00 | 0.00 | 72 | 1009.0 |
| 20260506160746 | 18 | 166 | 3.2 | 12.9 | 0.00 | 0.00 | 0.00 | 73 | 1009.0 |
| 20260506160253 | 18 | 191 | 4.8 | 9.7 | 0.00 | 0.00 | 0.00 | 72 | 1009.0 |
| 20260506155748 | 19 | 253 | 4.8 | 12.9 | 0.00 | 0.00 | 0.00 | 72 | 1009.0 |
| 20260506155247 | 18 | 246 | 0.0 | 0.0 | 0.00 | 0.00 | 0.00 | 73 | 1009.0 |
| 20260506154747 | 18 | 216 | 3.2 | 6.4 | 0.00 | 0.00 | 0.00 | 73 | 1009.0 |
| 20260506154246 | 18 | 159 | 4.8 | 8.0 | 0.00 | 0.00 | 0.00 | 73 | 1009.0 |
| 20260506153746 | 18 | 236 | 3.2 | 6.4 | 0.00 | 0.00 | 0.00 | 72 | 1009.0 |
| 20260506153247 | 18 | 299 | 3.2 | 4.8 | 0.00 | 0.00 | 0.00 | 73 | 1009.0 |
| 20260506152747 | 18 | 162 | 4.8 | 8.0 | 0.00 | 0.00 | 0.00 | 73 | 1009.0 |
| 20260506152247 | 18 | 224 | 4.8 | 9.7 | 0.00 | 0.00 | 0.00 | 73 | 1009.0 |
| 20260506151746 | 18 | 166 | 6.4 | 14.5 | 0.00 | 0.00 | 0.00 | 74 | 1009.0 |
| 20260506151247 | 18 | 236 | 1.6 | 6.4 | 0.00 | 0.00 | 0.00 | 74 | 1009.0 |
| 20260506150747 | 18 | 148 | 6.4 | 11.3 | 0.00 | 0.00 | 0.00 | 74 | 1009.0 |
| 20260506150247 | 18 | 201 | 1.6 | 4.8 | 0.00 | 0.00 | 0.00 | 74 | 1009.0 |
| 20260506145747 | 18 | 158 | 0.0 | 3.2 | 0.00 | 0.00 | 0.00 | 74 | 1009.0 |
| 20260506145246 | 18 | 152 | 3.2 | 9.7 | 0.00 | 0.00 | 0.00 | 75 | 1009.0 |
| 20260506144746 | 18 | 306 | 0.0 | 3.2 | 0.00 | 0.00 | 0.00 | 74 | 1009.0 |
| 20260506144247 | 18 | 169 | 4.8 | 9.7 | 0.00 | 0.00 | 0.00 | 75 | 1009.0 |
| 20260506143746 | 18 | 57 | 1.6 | 6.4 | 0.00 | 0.00 | 0.00 | 75 | 1009.0 |
| 20260506143247 | 18 | 182 | 3.2 | 6.4 | 0.00 | 0.00 | 0.00 | 75 | 1009.0 |
| 20260506142747 | 18 | 234 | 1.6 | 6.4 | 0.00 | 0.00 | 0.00 | 74 | 1009.0 |
| 20260506142247 | 18 | 287 | 1.6 | 3.2 | 0.00 | 0.00 | 0.00 | 75 | 1009.0 |
| 20260506141746 | 18 | 118 | 1.6 | 4.8 | 0.00 | 0.00 | 0.00 | 75 | 1010.0 |
| 20260506141247 | 18 | 195 | 1.6 | 4.8 | 0.00 | 0.00 | 0.00 | 74 | 1009.0 |
| 20260506140747 | 18 | 172 | 3.2 | 6.4 | 0.00 | 0.00 | 0.00 | 75 | 1009.0 |
| 20260506135914 | 18 | 299 | 3.2 | 9.7 | 0.00 | 0.00 | 0.00 | 76 | 1009.0 |
| 20260506135247 | 18 | 122 | 3.2 | 4.8 | 0.00 | 0.00 | 0.00 | 76 | 1009.0 |
| 20260506134747 | 18 | 147 | 4.8 | 12.9 | 0.00 | 0.00 | 0.00 | 77 | 1009.0 |
| 20260506134246 | 17 | 159 | 6.4 | 11.3 | 0.00 | 0.00 | 0.00 | 77 | 1009.0 |
| 20260506133746 | 17 | 165 | 4.8 | 11.3 | 0.00 | 0.00 | 0.00 | 77 | 1009.0 |
| 20260506133247 | 17 | 165 | 11.3 | 14.5 | 0.00 | 0.00 | 0.00 | 77 | 1009.0 |
| 20260506132747 | 17 | 316 | 3.2 | 8.0 | 0.00 | 0.00 | 0.00 | 77 | 1009.0 |
| 20260506132247 | 17 | 203 | 0.0 | 3.2 | 0.00 | 0.00 | 0.00 | 78 | 1009.0 |
| 20260506131747 | 17 | 270 | 3.2 | 4.8 | 0.00 | 0.00 | 0.00 | 78 | 1009.0 |
| 20260506131247 | 17 | 160 | 3.2 | 6.4 | 0.00 | 0.00 | 0.00 | 78 | 1009.0 |
| 20260506130746 | 17 | 173 | 3.2 | 6.4 | 0.00 | 0.00 | 0.00 | 79 | 1009.0 |
| 20260506130249 | 17 | 159 | 4.8 | 11.3 | 0.00 | 0.00 | 0.00 | 79 | 1009.0 |
| 20260506125750 | 17 | 182 | 0.0 | 4.8 | 0.00 | 0.00 | 0.00 | 79 | 1010.0 |
| 20260506125246 | 17 | 356 | 1.6 | 3.2 | 0.00 | 0.00 | 0.00 | 79 | 1010.0 |
| 20260506124746 | 17 | 177 | 4.8 | 9.7 | 0.00 | 0.00 | 0.00 | 79 | 1010.0 |
| 20260506124246 | 17 | 185 | 3.2 | 9.7 | 0.00 | 0.00 | 0.00 | 79 | 1010.0 |
| 20260506123747 | 17 | 47 | 1.6 | 3.2 | 0.00 | 0.00 | 0.00 | 79 | 1010.0 |
| 20260506123247 | 17 | 63 | 1.6 | 4.8 | 0.00 | 0.00 | 0.00 | 79 | 1010.0 |
| 20260506122747 | 17 | 229 | 0.0 | 3.2 | 0.00 | 0.00 | 0.00 | 79 | 1010.0 |
| 20260506122247 | 17 | 294 | 1.6 | 3.2 | 0.00 | 0.00 | 0.00 | 79 | 1010.0 |
| 20260506121746 | 17 | 205 | 1.6 | 4.8 | 0.00 | 0.00 | 0.00 | 79 | 1010.0 |
| 20260506121246 | 17 | 163 | 1.6 | 6.4 | 0.00 | 0.00 | 0.00 | 79 | 1010.0 |
| 20260506120746 | 17 | 187 | 1.6 | 6.4 | 0.00 | 0.00 | 0.00 | 79 | 1009.0 |
| 20260506115803 | 17 | 143 | 3.2 | 9.7 | 0.00 | 0.00 | 0.00 | 79 | 1010.0 |
| 20260506115246 | 17 | 159 | 9.7 | 12.9 | 0.00 | 0.00 | 0.00 | 79 | 1010.0 |
| 20260506114746 | 17 | 245 | 1.6 | 3.2 | 0.00 | 0.00 | 0.00 | 79 | 1010.0 |
| 20260506114247 | 17 | 224 | 3.2 | 4.8 | 0.00 | 0.00 | 0.00 | 79 | 1010.0 |
| 20260506113751 | 17 | 189 | 3.2 | 4.8 | 0.00 | 0.00 | 0.00 | 80 | 1010.0 |
| 20260506113249 | 16 | 150 | 1.6 | 4.8 | 0.00 | 0.00 | 0.00 | 81 | 1009.0 |
| 20260506112748 | 16 | 185 | 1.6 | 4.8 | 0.00 | 0.00 | 0.00 | 82 | 1010.0 |
| 20260506112250 | 16 | 169 | 4.8 | 6.4 | 0.00 | 0.00 | 0.00 | 83 | 1010.0 |
| 20260506111746 | 15 | 187 | 3.2 | 6.4 | 0.00 | 0.00 | 0.00 | 84 | 1010.0 |
| 20260506111250 | 15 | 139 | 1.6 | 4.8 | 0.00 | 0.00 | 0.00 | 85 | 1010.0 |
| 20260506110748 | 15 | 166 | 1.6 | 4.8 | 0.00 | 0.00 | 0.00 | 87 | 1010.0 |
| 20260506110249 | 15 | 0 | 0.0 | 0.0 | 0.00 | 0.00 | 0.00 | 87 | 1010.0 |
| 20260506105748 | 15 | 163 | 1.6 | 6.4 | 0.00 | 0.00 | 0.00 | 86 | 1010.0 |
| 20260506105249 | 15 | 0 | 0.0 | 0.0 | 0.00 | 0.00 | 0.00 | 86 | 1010.0 |
| 20260506104750 | 15 | 175 | 1.6 | 4.8 | 0.00 | 0.00 | 0.00 | 86 | 1010.0 |
| 20260506104250 | 15 | 192 | 1.6 | 4.8 | 0.00 | 0.00 | 0.00 | 86 | 1010.0 |
| 20260506103750 | 15 | 135 | 0.0 | 3.2 | 0.00 | 0.00 | 0.00 | 87 | 1010.0 |
| 20260506103248 | 14 | 171 | 3.2 | 4.8 | 0.00 | 0.00 | 0.00 | 87 | 1010.0 |
| 20260506102751 | 14 | 63 | 1.6 | 4.8 | 0.00 | 0.00 | 0.00 | 87 | 1010.0 |
| 20260506102246 | 14 | 0 | 0.0 | 0.0 | 0.00 | 0.00 | 0.00 | 88 | 1010.0 |
| 20260506101749 | 14 | 168 | 0.0 | 1.6 | 0.00 | 0.00 | 0.00 | 88 | 1010.0 |
| 20260506101251 | 14 | 173 | 0.0 | 1.6 | 0.00 | 0.00 | 0.00 | 88 | 1010.0 |
| 20260506100751 | 14 | 124 | 0.0 | 3.2 | 0.00 | 0.00 | 0.00 | 88 | 1010.0 |
| 20260506100256 | 13 | 162 | 1.6 | 3.2 | 0.00 | 0.00 | 0.00 | 89 | 1010.0 |
| 20260506095746 | 13 | 150 | 0.0 | 1.6 | 0.00 | 0.00 | 0.00 | 88 | 1010.0 |
| 20260506095247 | 13 | 150 | 0.0 | 1.6 | 0.00 | 0.00 | 0.00 | 89 | 1010.0 |
| 20260506094746 | 13 | 0 | 0.0 | 0.0 | 0.00 | 0.00 | 0.00 | 89 | 1010.0 |
| 20260506094247 | 13 | 0 | 0.0 | 0.0 | 0.00 | 0.00 | 0.00 | 88 | 1010.0 |
| 20260506093747 | 13 | 144 | 3.2 | 6.4 | 0.00 | 0.00 | 0.00 | 89 | 1010.0 |
| 20260506093247 | 13 | 223 | 0.0 | 1.6 | 0.00 | 0.00 | 0.00 | 89 | 1010.0 |
| 20260506092746 | 13 | 0 | 0.0 | 0.0 | 0.00 | 0.00 | 0.00 | 88 | 1010.0 |
| 20260506092247 | 13 | 0 | 0.0 | 0.0 | 0.00 | 0.00 | 0.00 | 88 | 1010.0 |
| 20260506091746 | 13 | 0 | 0.0 | 0.0 | 0.00 | 0.00 | 0.00 | 87 | 1010.0 |
| 20260506091249 | 14 | 0 | 0.0 | 0.0 | 0.00 | 0.00 | 0.00 | 87 | 1010.0 |
| 20260506090748 | 14 | 0 | 0.0 | 0.0 | 0.00 | 0.00 | 0.00 | 86 | 1010.0 |
| 20260506090247 | 14 | 0 | 0.0 | 0.0 | 0.00 | 0.00 | 0.00 | 85 | 1010.0 |
| 20260506085747 | 14 | 163 | 1.6 | 6.4 | 0.00 | 0.00 | 0.00 | 85 | 1010.0 |
| 20260506085246 | 14 | 170 | 0.0 | 0.0 | 0.00 | 0.00 | 0.00 | 85 | 1010.0 |
| 20260506084747 | 14 | 0 | 0.0 | 0.0 | 0.00 | 0.00 | 0.00 | 85 | 1010.0 |
| 20260506084247 | 14 | 133 | 1.6 | 3.2 | 0.00 | 0.00 | 0.00 | 85 | 1010.0 |
| 20260506083746 | 14 | 0 | 0.0 | 0.0 | 0.00 | 0.00 | 0.00 | 85 | 1010.0 |
| 20260506083246 | 14 | 0 | 0.0 | 0.0 | 0.00 | 0.00 | 0.00 | 84 | 1010.0 |
| 20260506082746 | 14 | 118 | 0.0 | 3.2 | 0.00 | 0.00 | 0.00 | 84 | 1010.0 |
| 20260506082246 | 15 | 170 | 0.0 | 3.2 | 0.00 | 0.00 | 0.00 | 84 | 1010.0 |
| 20260506081746 | 15 | 0 | 0.0 | 0.0 | 0.00 | 0.00 | 0.00 | 83 | 1010.0 |
| 20260506081246 | 15 | 0 | 0.0 | 0.0 | 0.00 | 0.00 | 0.00 | 83 | 1010.0 |
| 20260506080747 | 15 | 0 | 0.0 | 0.0 | 0.00 | 0.00 | 0.00 | 82 | 1010.0 |
| 20260506080246 | 15 | 0 | 0.0 | 0.0 | 0.00 | 0.00 | 0.00 | 82 | 1010.0 |
| 20260506073246 | 16 | 0 | 0.0 | 0.0 | 0.00 | 0.00 | 0.00 | 79 | 1010.0 |
| 20260506072747 | 16 | 178 | 1.6 | 3.2 | 0.00 | 0.00 | 0.00 | 79 | 1010.0 |
| 20260506072248 | 16 | 198 | 0.0 | 1.6 | 0.00 | 0.00 | 0.00 | 78 | 1010.0 |
| 20260506071747 | 16 | 0 | 0.0 | 0.0 | 0.00 | 0.00 | 0.00 | 78 | 1010.0 |
| 20260506071246 | 16 | 154 | 1.6 | 6.4 | 0.00 | 0.00 | 0.00 | 77 | 1010.0 |
| 20260506070747 | 16 | 142 | 1.6 | 9.7 | 0.00 | 0.00 | 0.00 | 77 | 1010.0 |
| 20260506070246 | 16 | 181 | 0.0 | 3.2 | 0.00 | 0.00 | 0.00 | 76 | 1010.0 |
| 20260506062246 | 17 | 180 | 4.8 | 8.0 | 0.00 | 0.00 | 0.00 | 73 | 1009.0 |
| 20260506061746 | 17 | 183 | 6.4 | 12.9 | 0.00 | 0.00 | 0.00 | 74 | 1009.0 |
| 20260506061247 | 17 | 184 | 0.0 | 4.8 | 0.00 | 0.00 | 0.00 | 74 | 1010.0 |
| 20260506060746 | 17 | 172 | 6.4 | 11.3 | 0.00 | 0.00 | 0.00 | 73 | 1010.0 |
| 20260506060246 | 17 | 167 | 4.8 | 12.9 | 0.00 | 0.00 | 0.00 | 73 | 1010.0 |
| 20260506051246 | 18 | 168 | 4.8 | 12.9 | 0.00 | 0.00 | 0.00 | 68 | 1010.0 |
| 20260506050746 | 18 | 228 | 3.2 | 6.4 | 0.00 | 0.00 | 0.00 | 67 | 1010.0 |
| 20260506050246 | 18 | 211 | 1.6 | 3.2 | 0.00 | 0.00 | 0.00 | 68 | 1010.0 |
| 20260506044746 | 17 | 142 | 6.4 | 11.3 | 0.00 | 0.00 | 0.00 | 67 | 1010.0 |
| 20260506044246 | 17 | 247 | 0.0 | 1.6 | 0.00 | 0.00 | 0.00 | 67 | 1010.0 |
| 20260506043747 | 17 | 166 | 3.2 | 8.0 | 0.00 | 0.00 | 0.00 | 67 | 1010.0 |
| 20260506043246 | 17 | 230 | 1.6 | 4.8 | 0.00 | 0.00 | 0.00 | 66 | 1010.0 |
| 20260506042746 | 17 | 164 | 1.6 | 4.8 | 0.00 | 0.00 | 0.00 | 67 | 1010.0 |
| 20260506042246 | 17 | 167 | 1.6 | 3.2 | 0.00 | 0.00 | 0.00 | 67 | 1010.0 |
| 20260506041746 | 17 | 190 | 1.6 | 4.8 | 0.00 | 0.00 | 0.00 | 67 | 1010.0 |
| 20260506041246 | 17 | 147 | 1.6 | 4.8 | 0.00 | 0.00 | 0.00 | 68 | 1010.0 |
| 20260506040747 | 17 | 205 | 4.8 | 6.4 | 0.00 | 0.00 | 0.00 | 68 | 1010.0 |
| 20260506040246 | 17 | 160 | 1.6 | 3.2 | 0.00 | 0.00 | 0.00 | 68 | 1010.0 |
| 20260506035746 | 17 | 144 | 1.6 | 4.8 | 0.00 | 0.00 | 0.00 | 68 | 1010.0 |
| 20260506035246 | 17 | 160 | 3.2 | 8.0 | 0.00 | 0.00 | 0.00 | 68 | 1010.0 |
| 20260506034747 | 17 | 199 | 3.2 | 4.8 | 0.00 | 0.00 | 0.00 | 68 | 1010.0 |
| 20260506034246 | 17 | 238 | 1.6 | 3.2 | 0.00 | 0.00 | 0.00 | 68 | 1010.0 |
| 20260506033748 | 17 | 357 | 1.6 | 4.8 | 0.00 | 0.00 | 0.00 | 67 | 1010.0 |
| 20260506033248 | 17 | 210 | 0.0 | 1.6 | 0.00 | 0.00 | 0.00 | 67 | 1010.0 |
| 20260506032747 | 17 | 161 | 4.8 | 8.0 | 0.00 | 0.00 | 0.00 | 67 | 1010.0 |
| 20260506032247 | 17 | 182 | 1.6 | 3.2 | 0.00 | 0.00 | 0.00 | 67 | 1010.0 |
| 20260506031747 | 17 | 251 | 0.0 | 3.2 | 0.00 | 0.00 | 0.00 | 67 | 1010.0 |
| 20260506031246 | 17 | 334 | 1.6 | 4.8 | 0.00 | 0.00 | 0.00 | 66 | 1010.0 |
| 20260506030746 | 17 | 207 | 1.6 | 3.2 | 0.00 | 0.00 | 0.00 | 67 | 1010.0 |
| 20260506030246 | 17 | 274 | 0.0 | 1.6 | 0.00 | 0.00 | 0.00 | 67 | 1010.0 |
| 20260506025746 | 17 | 202 | 4.8 | 6.4 | 0.00 | 0.00 | 0.00 | 66 | 1010.0 |
| 20260506025248 | 17 | 167 | 1.6 | 3.2 | 0.00 | 0.00 | 0.00 | 67 | 1010.0 |
| 20260506024746 | 17 | 219 | 1.6 | 3.2 | 0.00 | 0.00 | 0.00 | 66 | 1010.0 |
| 20260506024247 | 17 | 102 | 0.0 | 3.2 | 0.00 | 0.00 | 0.00 | 66 | 1010.0 |
| 20260506023747 | 17 | 227 | 0.0 | 1.6 | 0.00 | 0.00 | 0.00 | 65 | 1010.0 |
| 20260506023247 | 17 | 146 | 3.2 | 6.4 | 0.00 | 0.00 | 0.00 | 65 | 1010.0 |
| 20260506022747 | 17 | 196 | 1.6 | 3.2 | 0.00 | 0.00 | 0.00 | 65 | 1010.0 |
| 20260506022246 | 17 | 160 | 3.2 | 6.4 | 0.00 | 0.00 | 0.00 | 65 | 1010.0 |
| 20260506021746 | 18 | 0 | 0.0 | 0.0 | 0.00 | 0.00 | 0.00 | 65 | 1010.0 |
| 20260506021246 | 18 | 168 | 1.6 | 4.8 | 0.00 | 0.00 | 0.00 | 64 | 1010.0 |
| 20260506020747 | 18 | 121 | 1.6 | 4.8 | 0.00 | 0.00 | 0.00 | 64 | 1010.0 |
| 20260506020246 | 18 | 213 | 3.2 | 4.8 | 0.00 | 0.00 | 0.00 | 63 | 1010.0 |
| 20260506015746 | 18 | 121 | 1.6 | 4.8 | 0.00 | 0.00 | 0.00 | 63 | 1010.0 |
| 20260506015246 | 18 | 215 | 0.0 | 3.2 | 0.00 | 0.00 | 0.00 | 63 | 1010.0 |
| 20260506014746 | 18 | 349 | 0.0 | 3.2 | 0.00 | 0.00 | 0.00 | 63 | 1010.0 |
| 20260506014247 | 18 | 175 | 0.0 | 1.6 | 0.00 | 0.00 | 0.00 | 62 | 1010.0 |
| 20260506013746 | 18 | 0 | 0.0 | 0.0 | 0.00 | 0.00 | 0.00 | 62 | 1010.0 |
| 20260506013246 | 19 | 161 | 6.4 | 11.3 | 0.00 | 0.00 | 0.00 | 61 | 1010.0 |
| 20260506012746 | 19 | 241 | 1.6 | 4.8 | 0.00 | 0.00 | 0.00 | 61 | 1010.0 |
| 20260506012247 | 19 | 240 | 1.6 | 4.8 | 0.00 | 0.00 | 0.00 | 60 | 1010.0 |
| 20260506011746 | 19 | 194 | 3.2 | 6.4 | 0.00 | 0.00 | 0.00 | 59 | 1009.0 |
| 20260506011246 | 19 | 292 | 0.0 | 1.6 | 0.00 | 0.00 | 0.00 | 60 | 1009.0 |
| 20260506010746 | 20 | 210 | 3.2 | 6.4 | 0.00 | 0.00 | 0.00 | 60 | 1009.0 |
| 20260506010247 | 20 | 189 | 4.8 | 12.9 | 0.00 | 0.00 | 0.00 | 59 | 1009.0 |
| 20260506005746 | 20 | 195 | 3.2 | 4.8 | 0.00 | 0.00 | 0.00 | 60 | 1009.0 |
| 20260506005248 | 20 | 168 | 3.2 | 6.4 | 0.00 | 0.00 | 0.00 | 59 | 1009.0 |
| 20260506004746 | 20 | 157 | 4.8 | 12.9 | 0.00 | 0.00 | 0.00 | 59 | 1009.0 |
| 20260506004247 | 20 | 203 | 1.6 | 4.8 | 0.00 | 0.00 | 0.00 | 59 | 1009.0 |
| 20260506003746 | 20 | 200 | 1.6 | 4.8 | 0.00 | 0.00 | 0.00 | 58 | 1009.0 |
| 20260506003246 | 20 | 200 | 4.8 | 9.7 | 0.00 | 0.00 | 0.00 | 58 | 1009.0 |
| 20260506002746 | 20 | 163 | 4.8 | 11.3 | 0.00 | 0.00 | 0.00 | 58 | 1009.0 |
| 20260506002247 | 20 | 143 | 3.2 | 6.4 | 0.00 | 0.00 | 0.00 | 57 | 1009.0 |
| 20260506001746 | 20 | 193 | 4.8 | 11.3 | 0.00 | 0.00 | 0.00 | 57 | 1009.0 |
| 20260506001247 | 21 | 120 | 3.2 | 6.4 | 0.00 | 0.00 | 0.00 | 56 | 1009.0 |
| 20260506000746 | 21 | 169 | 4.8 | 12.9 | 0.00 | 0.00 | 0.00 | 56 | 1009.0 |
| 20260506000247 | 21 | 0 | 0.0 | 0.0 | 0.00 | 0.00 | 0.00 | 56 | 1009.0 |
| 20260505235746 | 21 | 334 | 0.0 | 3.2 | 0.00 | 0.00 | 0.00 | 55 | 1008.0 |
| 20260505235246 | 21 | 146 | 3.2 | 6.4 | 0.00 | 0.00 | 0.00 | 55 | 1008.0 |
| 20260505234746 | 21 | 177 | 6.4 | 9.7 | 0.00 | 0.00 | 0.00 | 54 | 1008.0 |
| 20260505234247 | 21 | 187 | 1.6 | 4.8 | 0.00 | 0.00 | 0.00 | 54 | 1008.0 |
| 20260505233746 | 21 | 170 | 3.2 | 6.4 | 0.00 | 0.00 | 0.00 | 54 | 1008.0 |
| 20260505233246 | 21 | 161 | 0.0 | 3.2 | 0.00 | 0.00 | 0.00 | 54 | 1008.0 |
| 20260505232746 | 21 | 236 | 3.2 | 6.4 | 0.00 | 0.00 | 0.00 | 54 | 1008.0 |
| 20260505232246 | 22 | 146 | 3.2 | 4.8 | 0.00 | 0.00 | 0.00 | 53 | 1008.0 |
| 20260505231746 | 22 | 191 | 8.0 | 12.9 | 0.00 | 0.00 | 0.00 | 52 | 1008.0 |
| 20260505231246 | 22 | 288 | 0.0 | 1.6 | 0.00 | 0.00 | 0.00 | 53 | 1008.0 |
| 20260505230746 | 22 | 217 | 4.8 | 6.4 | 0.00 | 0.00 | 0.00 | 52 | 1008.0 |
| 20260505230246 | 22 | 183 | 3.2 | 8.0 | 0.00 | 0.00 | 0.00 | 52 | 1008.0 |
| 20260505225746 | 22 | 212 | 3.2 | 6.4 | 0.00 | 0.00 | 0.00 | 52 | 1007.0 |
| 20260505225246 | 22 | 188 | 6.4 | 11.3 | 0.00 | 0.00 | 0.00 | 51 | 1007.0 |
| 20260505224746 | 23 | 229 | 1.6 | 6.4 | 0.00 | 0.00 | 0.00 | 51 | 1007.0 |
| 20260505224247 | 23 | 154 | 9.7 | 14.5 | 0.00 | 0.00 | 0.00 | 50 | 1007.0 |
| 20260505223747 | 23 | 167 | 1.6 | 4.8 | 0.00 | 0.00 | 0.00 | 51 | 1007.0 |
| 20260505223248 | 23 | 145 | 3.2 | 9.7 | 0.00 | 0.00 | 0.00 | 50 | 1007.0 |
| 20260505222746 | 23 | 194 | 3.2 | 11.3 | 0.00 | 0.00 | 0.00 | 49 | 1007.0 |
| 20260505222246 | 23 | 164 | 4.8 | 9.7 | 0.00 | 0.00 | 0.00 | 49 | 1007.0 |
| 20260505221747 | 23 | 290 | 3.2 | 9.7 | 0.00 | 0.00 | 0.00 | 48 | 1007.0 |
| 20260505221246 | 23 | 174 | 4.8 | 9.7 | 0.00 | 0.00 | 0.00 | 48 | 1007.0 |
| 20260505220309 | 24 | 153 | 4.8 | 9.7 | 0.00 | 0.00 | 0.00 | 48 | 1007.0 |
| 20260505215750 | 24 | 270 | 3.2 | 6.4 | 0.00 | 0.00 | 0.00 | 47 | 1007.0 |
| 20260505215246 | 24 | 157 | 4.8 | 12.9 | 0.00 | 0.00 | 0.00 | 47 | 1007.0 |
| 20260505214747 | 24 | 185 | 3.2 | 4.8 | 0.00 | 0.00 | 0.00 | 47 | 1006.0 |
| 20260505214248 | 24 | 199 | 8.0 | 16.1 | 0.00 | 0.00 | 0.00 | 46 | 1006.0 |
| 20260505213747 | 24 | 168 | 6.4 | 9.7 | 0.00 | 0.00 | 0.00 | 46 | 1007.0 |
| 20260505213246 | 24 | 215 | 3.2 | 8.0 | 0.00 | 0.00 | 0.00 | 46 | 1007.0 |
| 20260505212746 | 24 | 167 | 6.4 | 14.5 | 0.00 | 0.00 | 0.00 | 46 | 1007.0 |
| 20260505212248 | 25 | 78 | 0.0 | 1.6 | 0.00 | 0.00 | 0.00 | 46 | 1007.0 |
| 20260505211747 | 25 | 161 | 6.4 | 12.9 | 0.00 | 0.00 | 0.00 | 46 | 1007.0 |
| 20260505211249 | 25 | 95 | 1.6 | 9.7 | 0.00 | 0.00 | 0.00 | 46 | 1007.0 |
| 20260505210746 | 25 | 144 | 4.8 | 11.3 | 0.00 | 0.00 | 0.00 | 44 | 1007.0 |
| 20260505210247 | 25 | 177 | 8.0 | 16.1 | 0.00 | 0.00 | 0.00 | 44 | 1007.0 |
| 20260505205746 | 25 | 166 | 6.4 | 11.3 | 0.00 | 0.00 | 0.00 | 44 | 1007.0 |
| 20260505205246 | 25 | 180 | 6.4 | 14.5 | 0.00 | 0.00 | 0.00 | 44 | 1007.0 |
| 20260505204746 | 25 | 209 | 3.2 | 6.4 | 0.00 | 0.00 | 0.00 | 44 | 1006.0 |
| 20260505204246 | 25 | 163 | 11.3 | 14.5 | 0.00 | 0.00 | 0.00 | 44 | 1006.0 |
| 20260505203747 | 25 | 148 | 1.6 | 6.4 | 0.00 | 0.00 | 0.00 | 44 | 1006.0 |
| 20260505203247 | 26 | 189 | 4.8 | 11.3 | 0.00 | 0.00 | 0.00 | 43 | 1006.0 |
| 20260505202747 | 26 | 175 | 4.8 | 11.3 | 0.00 | 0.00 | 0.00 | 43 | 1007.0 |